This is the latest recevied weather packets stored in our database for station/object WB5CFT. If no packets are shown the sender has not sent any weather packets the latest 10 day(s).
| Time | Temp. | Humidity | Pressure | Rain* | Wind** | Luminosity | Snow |
|---|---|---|---|---|---|---|---|
| 1777770044 | 18.89° C | 44% | 1021.8 hPa | 0 mm | - | 34 W/m² | - |
| 1777769741 | 18.89° C | 44% | 1021.7 hPa | 0 mm | - | 41 W/m² | - |
| 1777769438 | 18.89° C | 44% | 1021.8 hPa | 0 mm | - | 48 W/m² | - |
| 1777769134 | 18.89° C | 45% | 1021.9 hPa | 0 mm | - | 56 W/m² | - |
| 1777768832 | 18.89° C | 44% | 1021.9 hPa | 0 mm | - | 64 W/m² | - |
| 1777768528 | 18.89° C | 44% | 1022 hPa | 0 mm | - | 73 W/m² | - |
| 1777768226 | 18.89° C | 44% | 1021.9 hPa | 0 mm | - | 85 W/m² | - |
| 1777767923 | 18.89° C | 43% | 1021.9 hPa | 0 mm | - | 91 W/m² | - |
| 1777767620 | 18.89° C | 44% | 1022 hPa | 0 mm | - | 99 W/m² | - |
| 1777767316 | 18.89° C | 44% | 1022 hPa | 0 mm | - | 111 W/m² | - |
| 1777767014 | 18.89° C | 43% | 1022 hPa | 0 mm | - | 122 W/m² | - |
| 1777766711 | 18.89° C | 43% | 1022 hPa | 0 mm | - | 131 W/m² | - |
| 1777766408 | 18.89° C | 43% | 1022 hPa | 0 mm | - | 140 W/m² | - |
| 1777766104 | 18.89° C | 44% | 1022 hPa | 0 mm | - | 155 W/m² | - |
| 1777765802 | 18.89° C | 44% | 1021.9 hPa | 0 mm | - | 167 W/m² | - |
| 1777765498 | 19.44° C | 45% | 1022 hPa | 0 mm | - | 185 W/m² | - |
| 1777765196 | 19.44° C | 44% | 1021.9 hPa | 0 mm | - | 203 W/m² | - |
| 1777764896 | 19.44° C | 44% | 1022.1 hPa | 0 mm | - | 189 W/m² | - |
| 1777764593 | 18.89° C | 44% | 1022.1 hPa | 0 mm | - | 273 W/m² | - |
| 1777764290 | 18.89° C | 45% | 1021.9 hPa | 0 mm | - | 131 W/m² | - |
| 1777763986 | 18.89° C | 45% | 1021.9 hPa | 0 mm | - | 167 W/m² | - |
| 1777763684 | 18.89° C | 45% | 1022.1 hPa | 0 mm | - | 164 W/m² | - |
| 1777763382 | 18.89° C | 45% | 1021.9 hPa | 0 mm | - | 188 W/m² | - |
| 1777763080 | 18.89° C | 45% | 1021.9 hPa | 0 mm | - | 208 W/m² | - |
| 1777762777 | 18.89° C | 45% | 1022.1 hPa | 0 mm | - | 261 W/m² | - |
* Rain latest hour (hover to see other rain measurements)
** Current wind speed in m/s (hover to see current wind gust speed)